Regional Weather Roundup
Issued by NWS Sterling, VA

Home | Current Version | Previous Version | Text Only | Print | Product List | Glossary On
Versions: 1 2 3 4 5 6 7 8 9 10 11 12 13 14 15 16 17 18 19 20 21 22 23 24 25 26 27 28 29 30 31 32 33 34 35 36 37 38 39 40 41 42 43 44 45 46 47 48 49 50
000
ASUS41 KLWX 191911
RWRLWX

REGIONAL WEATHER ROUNDUP
NATIONAL WEATHER SERVICE BALTIMORE MD/WASHINGTON DC
300 PM EDT THU APR 19 2018

Note: "FAIR" indicates few or no clouds below 12,000 feet
with no significant weather and/or obstructions to visibility.
 TC=TEMPERATURE CELSIUS

 * =Non NWS site. Station does not report precipitation (e.g. rain,
    snow, etc.), thunder, or fog.

DCZ001-MDZ009-015-VAZ040>042-051-053>054-192000-
WASHINGTON METRO

CITY           SKY/WX    TMP DP  RH WIND       PRES   REMARKS
WASHINGTON NAT PTSUNNY   55  31  39 NW24G41   29.88R
DULLES         PTSUNNY   52  30  43 NW28G38   29.92R
ANDREWS AFB    PTSUNNY   54  32  44 NW26G35   29.86R
FT BELVOIR     FAIR      56  32  40 W29G36    29.85R
QUANTICO       PTSUNNY   58  36  43 NW26G40   29.90R
COLLEGE PARK*  FAIR      54  30  39 NW21G32   29.87R
LEESBURG*      PTSUNNY   52  32  46 NW28G40   29.93R
MANASSAS*      PTSUNNY   55  33  43 NW31G39   29.93R
GAITHERSBURG*  PTSUNNY   50  30  46 NW20G30   29.91R

$$

MDZ006>007-011-014-192000-
BALTIMORE METRO

CITY           SKY/WX    TMP DP  RH WIND       PRES   REMARKS
BWI AIRPORT    PTSUNNY   53  33  46 W30G40    29.86R
MD SCIENCE CTR   N/A     56  31  38 MISG      29.86R
MARTIN STATE   PTSUNNY   55  37  50 W23G35    29.86R
ANNAPOLIS      CLOUDY    56  35  45 NW14G36   29.85R
FORT MEADE*    CLOUDY    54  32  43 NW25G32   29.90R

$$

MDZ012-015-019>023-192000-
MARYLAND EASTERN SHORE

CITY           SKY/WX    TMP DP  RH WIND       PRES   REMARKS
OCEAN CITY     LGT RAIN  50  46  86 NW14G32   29.82R
SALISBURY      CLOUDY    50  45  83 W8        29.84R
BAY BRIDGE AP* CLOUDY    54  39  58 NW16G24   29.85R
CAMBRIDGE*       N/A     52  39  62 NW13G20   29.85R
EASTON*        DRIZZLE   52  37  58 NW13G21   29.87R

$$

MDZ017>025-192000-
SOUTHERN MARYLAND

CITY           SKY/WX    TMP DP  RH WIND       PRES   REMARKS
PATUXENT RIVER PTSUNNY   56  43  61 NW13      29.85R
ST INIGOES     CLOUDY    51  44  77 NW7G20    29.85R
LEONARDTOWN*   PTSUNNY   55  41  58 W9        29.86S

$$

MDZ003>005-192000-
NORTH CENTRAL MARYLAND

CITY           SKY/WX    TMP DP  RH WIND       PRES   REMARKS
FREDERICK*     PTSUNNY   52  27  37 NW20G32   29.95R
HAGERSTOWN APT CLOUDY    46  28  49 NW33G41   29.91R
WESTMINSTER*   CLOUDY    46  32  57 NW20G29   29.89R

$$

MDZ501>502-192000-
WESTERN MARYLAND

CITY           SKY/WX    TMP DP  RH WIND       PRES   REMARKS
OAKLAND*       CLOUDY    30  27  86 NW12G32   29.95R WCI  21
CUMBERLAND*    PTSUNNY   45  28  53 NW15G23   30.06R

$$

VAZ025>031-192000-
SHENANDOAH VALLEY

CITY           SKY/WX    TMP DP  RH WIND       PRES   REMARKS
WINCHESTER*    CLOUDY    45  30  57 W22G28    29.97R
FRONT ROYAL*   CLOUDY    50  30  46 NW10G18   29.95R
LURAY*         CLOUDY    48  30  49 W10G26    29.97R
NEW MARKET*    CLOUDY    48  27  44 NW8       29.97R
STAUNTON*      CLOUDY    47  29  50 W17       30.00R
WAYNESBORO*    CLOUDY    47  28  47 NW14G21   29.98R

$$

WVZ021-048>050-054>055-192000-
EASTERN WEST VIRGINIA PANHANDLE

CITY           SKY/WX    TMP DP  RH WIND       PRES   REMARKS
MARTINSBURG    CLOUDY    46  27  47 NW20G29   29.95R
PETERSBURG*    PTSUNNY   46  34  62 NW15G21   30.00R

$$

VAZ036>039-050-192000-
CENTRAL FOOTHILLS

CITY           SKY/WX    TMP DP  RH WIND       PRES   REMARKS
CHARLOTTESVILL FAIR      57  29  34 W13G26    29.95R
CULPEPER*      PTSUNNY   56  30  36 NW20G28   29.93R
ORANGE*        FAIR      55  32  41 W23G33    29.93R
GORDONSVILLE*  FAIR      57  31  37 NW13G23   29.92R
WARRENTON*     CLOUDY    54  28  35 W25G35    29.92R

$$

VAZ055>057-192000-
NORTH AND CENTRAL PIEDMONT

CITY           SKY/WX    TMP DP  RH WIND       PRES   REMARKS
FREDERICKSBRG* PTSUNNY   59  33  37 NW18G31   29.89R
STAFFORD*      PTSUNNY   58  34  40 W17G35    29.94R

$$

NCZ024-NYZ072-PAZ021-071-VAZ022-071-192000-
OTHER REGIONAL OBSERVATIONS

CITY           SKY/WX    TMP DP  RH WIND       PRES   REMARKS
NEW YORK CITY  LGT RAIN  42  38  85 NW12      29.80R FOG
PHILADELPHIA   LGT RAIN  45  37  73 NW16G26   29.83R
PITTSBURGH     CLOUDY    40  29  64 NW17G29   30.07R WCI  31
ROANOKE        CLOUDY    47  30  51 NW14G28   30.08R
RICHMOND       FAIR      66  35  31 NW23G37   29.85R
RALEIGH        FAIR      71  41  33 NW13G30   29.87R

$$

ANZ530>537-192000-
MARINE OBSERVATIONS

STATION/POSITION TIME  TEMP    WIND        PRES
                       AIR SEA DIR/SP/G
                 (UTC) (F)     (DEG/KT/KT) (MB)
THOMAS PT LIGHT  1900   54 50  310/ 25/ 29 1011.7R
BALT KEY BRIDGE  1842   52     280/ 23/ 28 1010.2R
COVE POINT       1842   52     340/ 13/ 22 1011.4R
LEWISETTA        1842   50 55  340/  9/ 12 1011.1R
SOLOMONS ISLAND  1842   53 52  310/  9/ 19 1010.4R
PINEY POINT      1842          330/ 16/ 18   N/A

$$




USA.gov is the U.S. government's official web portal to all federal, state and local government web resources and services.